TimeEST,TemperatureF,Dew PointF,Humidity,Sea Level PressureIn,VisibilityMPH,Wind Direction,Wind SpeedMPH,Gust SpeedMPH,PrecipitationIn,Events,Conditions,WindDirDegrees,DateUTC
12:58 AM,17.4,7.5,65,30.18,10.0,SSW,9.2,-,N/A,,Clear,210,2013-12-13 05:58:00
1:58 AM,16.7,8.4,70,30.18,10.0,SSW,5.8,-,N/A,,Clear,210,2013-12-13 06:58:00
2:58 AM,15.3,8.4,74,30.18,10.0,SSW,6.9,-,N/A,,Clear,200,2013-12-13 07:58:00
3:58 AM,16.2,9.0,73,30.18,10.0,SSW,3.5,-,N/A,,Clear,200,2013-12-13 08:58:00
4:58 AM,16.5,9.9,75,30.18,10.0,SW,4.6,-,N/A,,Clear,230,2013-12-13 09:58:00
5:58 AM,21.4,11.5,66,30.19,10.0,WSW,3.5,-,N/A,,Overcast,240,2013-12-13 10:58:00
6:58 AM,21.9,12.0,66,30.20,10.0,South,6.9,-,N/A,,Overcast,190,2013-12-13 11:58:00
7:58 AM,28.2,10.0,47,30.20,10.0,West,8.1,17.3,N/A,,Overcast,260,2013-12-13 12:58:00
8:58 AM,29.3,10.9,46,30.22,10.0,West,11.5,-,N/A,,Mostly Cloudy,260,2013-12-13 13:58:00
9:58 AM,31.1,11.3,44,30.23,10.0,West,13.8,21.9,N/A,,Mostly Cloudy,260,2013-12-13 14:58:00
10:58 AM,33.3,12.4,42,30.23,10.0,West,11.5,19.6,N/A,,Partly Cloudy,270,2013-12-13 15:58:00
11:58 AM,34.2,12.9,42,30.20,10.0,WSW,13.8,18.4,N/A,,Clear,240,2013-12-13 16:58:00
12:58 PM,35.4,13.6,41,30.18,10.0,WSW,15.0,-,N/A,,Clear,240,2013-12-13 17:58:00
1:58 PM,36.3,14.4,41,30.18,10.0,West,13.8,-,N/A,,Clear,270,2013-12-13 18:58:00
2:58 PM,36.3,14.0,40,30.18,10.0,West,12.7,-,N/A,,Clear,270,2013-12-13 19:58:00
3:58 PM,35.2,14.2,42,30.20,10.0,WSW,6.9,-,N/A,,Clear,250,2013-12-13 20:58:00
4:58 PM,32.0,14.4,48,30.23,10.0,WSW,4.6,-,N/A,,Partly Cloudy,250,2013-12-13 21:58:00
5:58 PM,30.0,15.1,54,30.24,10.0,SW,4.6,-,N/A,,Partly Cloudy,230,2013-12-13 22:58:00
6:58 PM,28.2,16.2,61,30.27,10.0,SW,4.6,-,N/A,,Partly Cloudy,230,2013-12-13 23:58:00
7:58 PM,27.3,15.3,61,30.29,10.0,SSW,4.6,-,N/A,,Clear,210,2013-12-14 00:58:00
8:58 PM,25.2,16.5,70,30.27,10.0,South,5.8,-,N/A,,Clear,190,2013-12-14 01:58:00
9:58 PM,24.8,16.9,72,30.30,10.0,Calm,Calm,-,N/A,,Overcast,0,2013-12-14 02:58:00
10:58 PM,24.8,18.5,77,30.33,10.0,SSW,2.3,-,N/A,,Overcast,200,2013-12-14 03:58:00
11:58 PM,27.7,19.6,72,30.34,10.0,Calm,Calm,-,N/A,,Overcast,0,2013-12-14 04:58:00